Погода в Накхонситхаммарате

Таиланд     8°26′18″N   99°56′56″E
темп.,
°C
ветер,
м/с
пор.,
м/с
влажн.,
%
обл.,
%
осадки,
мм/ч
давл.,
гПа
погр.,
м
13 апреля, вт
вт1301:00+25з118610 0.3 101286
04:00+25з118737 0.3 101086
07:00+26ююз118583 0.3 1012101
10:00+31в236252 0.1 10131161
13:00+30в226991 2.9 1011868
16:00+29в347468 4.6 1009839
19:00+26в248447 12.3 1010299
22:00+25юз118863 4.9 101285
14 апреля, ср
ср1401:00+25юз118993 5.0 101162
04:00+24юз1289100 0.3 101056
07:00+25з0186100 0.3 101164
10:00+30с0165100 0.0 1013595
13:00+30всв116989 2.1 1011859
16:00+30св226750 0.6 1008832
19:00+27всв127856 2.2 1010154
22:00+25юз1188100 1.9 101240
15 апреля, чт
чт1501:00+25з118875 2.1 101047
04:00+24зсз118870 0.0 100966
07:00+25зсз118619 0.0 101188
10:00+30св226523 0.0 1012855
13:00+31всв326071 0.2 10101285
16:00+30всв326859 1.4 1008665
19:00+27вюв128110 2.6 1008139
22:00+26юз11835 0.3 101177
16 апреля, пт
пт1601:00+25юз118798 1.1 101051
04:00+25зюз1188100 0.2 100943
07:00+25зюз1186100 0.2 101171
10:00+31в116182 0.0 1012825
13:00+33всв3255100 0.1 10091437
16:00+30всв337049 1.0 1008401
19:00+27ю2383100 3.2 1009161
22:00+25зюз2388100 0.0 101174
17 апреля, сб
сб1701:00+25юз228999 0.1 101067
04:00+24зюз129097 0.0 101064
07:00+25зюз1187100 0.0 101284
10:00+31ююв015929 0.0 1013916
13:00+32всв435770 0.0 10101344
16:00+30св2266100 0.7 1009697
19:00+27всв128394 1.9 101189
22:00+25з1186100 3.4 101327